W2CJS Weather Reports


Display with metric or nautical units.
time (UTC)temp
F
wind
direction
speed
MPH
gust
MPH
rain 1hr
in
rain 24hr
in
rain mn
in
humidity
%
barometer
mb
20260902073003 61 0 0.0 0.0 0.00 0.12 0.00 96 1018.0
20260902072003 61 0 0.0 0.0 0.00 0.12 0.00 96 1017.9
20260902071003 61 0 0.0 0.0 0.00 0.12 0.00 95 1018.0
20260902070004 62 0 0.0 0.0 0.00 0.12 0.00 95 1018.1
20260902065024 62 0 0.0 0.0 0.00 0.12 0.00 95 1018.1
20260902064024 62 0 0.0 0.0 0.00 0.12 0.00 96 1018.2
20260902063003 62 0 0.0 0.0 0.00 0.12 0.00 95 1018.1
20260902062003 62 0 0.0 0.0 0.00 0.12 0.00 96 1018.0
20260902061003 62 0 0.0 0.0 0.00 0.12 0.00 96 1018.1
20260902060003 62 0 0.0 0.0 0.00 0.12 0.00 96 1018.2
20260902055003 62 0 0.0 0.0 0.00 0.12 0.00 96 1018.3
20260902054003 62 0 0.0 0.0 0.00 0.12 0.00 96 1018.3
20260902053024 62 0 0.0 0.0 0.00 0.12 0.00 96 1018.2
20260902052003 62 0 0.0 0.0 0.00 0.12 0.00 96 1018.1
20260902051003 62 0 0.0 0.0 0.00 0.12 0.00 96 1018.1
20260902050005 62 0 0.0 0.0 0.00 0.12 0.00 95 1017.9
20260902045003 62 0 0.0 0.0 0.00 0.12 0.00 95 1017.8
20260902044003 62 0 0.0 0.0 0.00 0.12 0.00 95 1017.7
20260902043003 62 0 0.0 0.0 0.00 0.12 0.00 95 1017.8
20260902042003 62 0 0.0 0.0 0.00 0.12 0.00 96 1017.8
20260902041003 62 0 0.0 0.0 0.00 0.12 0.00 96 1017.8
20260902040003 62 0 0.0 0.0 0.00 0.12 0.00 96 1017.7
20260902035003 62 0 0.0 0.0 0.00 0.12 0.12 95 1017.5
20260902034003 62 46 0.0 1.0 0.00 0.12 0.12 95 1017.4
20260902033003 62 0 0.0 0.0 0.00 0.12 0.12 95 1017.3
20260902032003 62 0 0.0 0.0 0.00 0.12 0.12 95 1017.5
20260902031003 62 0 0.0 0.0 0.00 0.12 0.12 95 1017.6
20260902030003 62 0 0.0 0.0 0.00 0.12 0.12 95 1017.5
20260902025003 62 46 0.0 1.0 0.00 0.12 0.12 95 1017.4
20260902024003 62 0 0.0 0.0 0.00 0.12 0.12 94 1017.4
20260902023003 62 0 0.0 0.0 0.00 0.12 0.12 94 1017.2
20260902022003 62 0 0.0 0.0 0.00 0.12 0.12 93 1017.1
20260902021003 62 0 0.0 0.0 0.00 0.12 0.12 93 1017.0
20260902020003 63 0 0.0 0.0 0.00 0.12 0.12 93 1017.0
20260902015003 63 46 0.0 1.0 0.00 0.12 0.12 93 1016.9
20260902014003 64 0 0.0 0.0 0.00 0.12 0.12 92 1017.0
20260902013003 64 0 0.0 0.0 0.00 0.12 0.12 92 1017.0
20260902012003 65 46 0.0 2.0 0.00 0.12 0.12 92 1016.9
20260902011003 65 46 0.0 3.0 0.00 0.12 0.12 92 1016.9
20260902010003 65 0 0.0 0.0 0.00 0.12 0.12 92 1016.9
20260902005003 65 0 0.0 0.0 0.00 0.12 0.12 92 1016.9
20260902004003 65 0 0.0 0.0 0.00 0.12 0.12 92 1016.8
20260902003003 65 0 0.0 0.0 0.00 0.12 0.12 92 1016.7
20260902002003 65 0 0.0 0.0 0.00 0.12 0.12 91 1016.6
20260902001003 66 0 0.0 0.0 0.00 0.12 0.12 92 1016.6
20260902000003 66 0 0.0 0.0 0.00 0.12 0.12 91 1016.6
20260901235003 66 0 0.0 0.0 0.00 0.12 0.12 91 1016.5
20260901234003 66 0 0.0 0.0 0.00 0.12 0.12 91 1016.4
20260901233003 67 0 0.0 0.0 0.00 0.12 0.12 91 1016.7
20260901232003 67 0 0.0 0.0 0.00 0.12 0.12 91 1016.7
20260901231024 67 0 0.0 0.0 0.00 0.12 0.12 90 1016.6
20260901230003 68 0 0.0 0.0 0.00 0.12 0.12 88 1016.7
20260901225024 68 0 0.0 0.0 0.00 0.12 0.12 88 1016.4
20260901224003 68 0 0.0 0.0 0.00 0.12 0.12 87 1016.6
20260901223003 68 0 0.0 0.0 0.00 0.12 0.12 85 1016.4
20260901222003 69 0 0.0 0.0 0.00 0.12 0.12 85 1016.4
20260901221003 69 46 0.0 1.0 0.00 0.12 0.12 84 1016.3
20260901220003 69 49 1.0 4.0 0.00 0.12 0.12 83 1016.2
20260901215003 70 65 0.0 3.0 0.00 0.12 0.12 82 1016.1
20260901214003 70 71 1.0 5.0 0.00 0.12 0.12 82 1016.1
20260901213003 70 64 2.0 5.0 0.00 0.12 0.12 82 1016.0
20260901212003 70 53 1.0 3.0 0.00 0.12 0.12 82 1015.9
20260901211003 70 70 1.0 5.0 0.00 0.12 0.12 81 1016.0
20260901210003 70 80 1.0 4.0 0.00 0.12 0.12 82 1016.1
20260901205003 70 81 1.0 3.0 0.00 0.12 0.12 82 1016.3
20260901204003 70 81 1.0 5.0 0.00 0.12 0.12 82 1016.1
20260901203003 71 81 0.0 3.0 0.00 0.12 0.12 83 1016.0
20260901202003 70 81 0.0 2.0 0.00 0.12 0.12 84 1016.1
20260901201003 69 81 1.0 4.0 0.00 0.12 0.12 86 1016.1
20260901200003 68 81 0.0 3.0 0.00 0.12 0.12 86 1016.1
20260901195003 68 82 0.0 2.0 0.00 0.12 0.12 87 1016.1
20260901194003 68 63 1.0 5.0 0.00 0.12 0.12 86 1016.2
20260901193024 68 79 2.0 7.0 0.00 0.12 0.12 86 1016.2
20260901192003 69 39 1.0 8.0 0.00 0.12 0.12 86 1016.3
20260901191003 69 9 0.0 6.0 0.00 0.12 0.12 85 1016.3
20260901190003 69 68 1.0 5.0 0.00 0.12 0.12 85 1016.2
20260901185003 69 44 1.0 3.0 0.00 0.12 0.12 84 1016.0
20260901184003 69 51 0.0 3.0 0.00 0.12 0.12 87 1016.2
20260901183003 69 57 1.0 4.0 0.00 0.12 0.12 85 1016.1
20260901182003 68 37 1.0 5.0 0.00 0.12 0.12 85 1016.2
20260901181003 68 49 1.0 3.0 0.00 0.12 0.12 85 1016.2
20260901180003 68 49 1.0 4.0 0.00 0.12 0.12 86 1016.3
20260901175003 68 46 2.0 5.0 0.00 0.12 0.12 86 1016.3
20260901174003 68 37 2.0 7.0 0.00 0.12 0.12 86 1016.1
20260901173003 68 39 1.0 6.0 0.00 0.12 0.12 86 1016.1
20260901172003 68 44 2.0 9.0 0.00 0.12 0.12 86 1016.0
20260901171003 68 75 2.0 8.0 0.00 0.12 0.12 87 1016.0
20260901170024 68 42 1.0 7.0 0.00 0.12 0.12 89 1016.0
20260901165024 67 39 2.0 6.0 0.00 0.12 0.12 89 1016.1
20260901164003 67 55 2.0 7.0 0.00 0.12 0.12 89 1016.1
20260901163003 67 30 2.0 7.0 0.00 0.12 0.12 90 1016.1
20260901162003 66 38 2.0 6.0 0.00 0.12 0.12 91 1016.1
20260901161003 66 44 1.0 6.0 0.00 0.12 0.12 92 1016.2
20260901160003 65 63 2.0 7.0 0.00 0.12 0.12 93 1016.2
20260901155003 65 35 1.0 4.0 0.00 0.12 0.12 94 1016.4
20260901154003 65 76 1.0 4.0 0.00 0.12 0.12 95 1016.6
20260901153003 64 47 2.0 4.0 0.00 0.12 0.12 94 1016.6
20260901152003 64 46 2.0 8.0 0.00 0.12 0.12 94 1016.6
20260901151003 64 61 1.0 5.0 0.00 0.12 0.12 95 1016.7
20260901150003 64 54 1.0 4.0 0.00 0.12 0.12 95 1016.6
20260901145003 64 52 1.0 4.0 0.00 0.12 0.12 95 1016.6
20260901144003 64 68 2.0 5.0 0.00 0.12 0.12 96 1016.3
20260901143003 64 56 2.0 7.0 0.00 0.12 0.12 96 1016.1
20260901142003 64 48 2.0 6.0 0.01 0.12 0.12 96 1015.6
20260901141003 64 39 2.0 5.0 0.03 0.12 0.12 96 1014.8
20260901140003 63 35 2.0 6.0 0.03 0.12 0.12 96 1014.4
20260901135003 63 24 0.0 5.0 0.03 0.12 0.12 96 1013.9
20260901134003 63 0 0.0 0.0 0.03 0.12 0.12 96 1014.5
20260901133003 62 15 0.0 4.0 0.05 0.12 0.12 96 1015.0
20260901132003 62 0 0.0 0.0 0.04 0.11 0.11 96 1015.1
20260901131024 62 0 0.0 0.0 0.02 0.09 0.09 96 1015.5
20260901130003 62 234 0.0 2.0 0.02 0.09 0.09 96 1015.6
20260901125003 62 65 2.0 4.0 0.02 0.09 0.09 96 1015.6
20260901124003 62 67 1.0 4.0 0.02 0.09 0.09 96 1016.1
20260901123003 62 68 1.0 4.0 0.00 0.07 0.07 96 1016.1
20260901122003 62 0 0.0 0.0 0.00 0.07 0.07 96 1016.0
20260901121024 62 0 0.0 0.0 0.00 0.07 0.07 96 1016.2
20260901120024 62 0 0.0 0.0 0.00 0.07 0.07 96 1016.3
20260901115003 62 0 0.0 0.0 0.00 0.07 0.07 96 1016.5
20260901114003 61 0 0.0 0.0 0.00 0.07 0.07 96 1016.8
20260901113003 61 0 0.0 0.0 0.00 0.07 0.07 96 1017.0
20260901112003 61 0 0.0 0.0 0.00 0.07 0.07 96 1017.0
20260901111003 61 0 0.0 0.0 0.02 0.07 0.07 96 1016.7
20260901110003 61 74 0.0 1.0 0.02 0.07 0.07 96 1016.6
20260901105003 61 74 0.0 1.0 0.02 0.07 0.07 96 1016.6
20260901104003 61 0 0.0 0.0 0.02 0.07 0.07 96 1016.4
20260901103003 61 74 0.0 1.0 0.02 0.07 0.07 96 1016.6
20260901102003 61 0 0.0 0.0 0.02 0.07 0.07 96 1016.7
20260901101003 61 0 0.0 0.0 0.00 0.05 0.05 95 1016.2
20260901100003 61 0 0.0 0.0 0.00 0.05 0.05 95 1016.4
20260901095003 61 0 0.0 0.0 0.00 0.05 0.05 95 1016.2
20260901094003 61 0 0.0 0.0 0.01 0.05 0.05 95 1016.1
20260901093024 61 74 0.0 2.0 0.02 0.05 0.05 95 1016.1
20260901092003 61 74 0.0 3.0 0.03 0.05 0.05 95 1016.0
20260901091003 61 54 1.0 4.0 0.05 0.05 0.05 95 1016.0
20260901090003 61 63 0.0 3.0 0.05 0.05 0.05 95 1016.0
20260901085003 61 123 0.0 3.0 0.05 0.05 0.05 95 1015.8
20260901084003 61 0 0.0 0.0 0.04 0.04 0.04 95 1016.2
20260901083003 61 0 0.0 0.0 0.03 0.03 0.03 95 1016.1
20260901082003 61 0 0.0 0.0 0.02 0.02 0.02 95 1016.1
20260901081003 61 0 0.0 0.0 0.00 0.00 0.00 95 1016.3
20260901080003 61 0 0.0 0.0 0.00 0.00 0.00 95 1016.4
20260901075003 61 0 0.0 0.0 0.00 0.00 0.00 95 1016.7
20260901074003 61 0 0.0 0.0 0.00 0.00 0.00 95 1016.9